Location: Burbank
(38.7788°N, 114.0429°W)
Time: 19:57:37
(UTC+00:00)

Vanguard 2 - Pass Details

Date: 14 May 2026
Orbit: 553 x 2894 km, 32.9° (Epoch: 6 June)

Event Time Altitude Azimuth Distance (km) Brightness Sun altitude
Rises 07:52:18 0° 214° (SW) 6,130 - -32.4°
Reaches altitude 10° 07:56:33 10° 206° (SSW) 5,348 - -32.3°
Exits shadow 08:09:56 38° 154° (SSE) 3,876 10.6 -31.9°
Maximum altitude 08:11:08 38° 146° (SSE) 3,865 10.6 -31.8°
Drops below altitude 10° 08:25:41 10° 87° (E) 5,374 12.0 -31.2°
Sets 08:29:54 0° 80° (E) 6,165 12.5 -31.0°
